STARLINK-35177

Last updated on Mon Oct 20 2025 00:02:05 GMT+0000 (Coordinated Universal Time)

1 65673U 25211X 25292.11049145 .00085768 00000+0 15588-2 0 9995 2 65673 97.6043 334.2809 0001895 94.2128 265.9339 15.49238247 5722
UTC large
Height (km)
Speed (km/s)
/
Latitude / Longitude
Inclination (degrees)
Orbital Period (minutes)
Azimuth
Elevation
Range (km)
Doppler Factor

Next 0 passes for location: London (51.5072 / 0.1276)

Sorry there are no passes over London.